Location: Unspecified
(35.6961°N, 0.0000°E)
Time: 11:08:17
(UTC+00:00)

Vanguard 3 - Pass Details

Date: 29 May 2019
Orbit: 508 x 3263 km, 33.3° (Epoch: 17 June)

Event Time Altitude Azimuth Distance (km) Brightness Sun altitude
Rises 01:16:32 0° 277° (W) 4,587 10.9 -29.8°
Reaches altitude 10° 01:19:24 10° 269° (W) 3,933 10.4 -29.5°
Enters shadow 01:20:40 15° 265° (W) 3,686 10.2 -29.4°
Maximum altitude 01:29:20 38° 207° (SSW) 3,198 - -28.7°
Exits shadow 01:35:32 29° 169° (S) 4,060 10.2 -28.2°
Drops below altitude 10° 01:44:35 10° 147° (SSE) 5,941 11.3 -27.4°
Sets 01:50:12 0° 141° (SE) 7,146 11.8 -26.8°
